• In France
  • List of Countries
  • For 7 days
  • Water Temperature
  • Satellite Maps
  • Weather Map
  • Weather Widgets
  • user-avatar
    Login

    Hourly Weather Lampeter

    Today, 18 November, Saturday

    Time Temperature Precipitation Wind Pressure Humidity
    00:00 +4°C° 0 mm 8 mps 756 mmHg 79%
    01:00 +4°C° 0 mm 8 mps 756 mmHg 79%
    02:00 +4°C° 0 mm 7 mps 756 mmHg 78%
    03:00 +4°C° 0 mm 7 mps 756 mmHg 78%
    04:00 +3°C° 0 mm 7 mps 756 mmHg 79%
    05:00 +3°C° 0 mm 6 mps 757 mmHg 79%
    06:00 +2°C° 0 mm 5 mps 756 mmHg 81%
    07:00 +2°C° 0 mm 5 mps 757 mmHg 80%
    08:00 +2°C° 0 mm 5 mps 757 mmHg 80%
    09:00 +2°C° 0 mm 5 mps 757 mmHg 79%
    10:00 +3°C° 0 mm 6 mps 758 mmHg 74%
    11:00 +4°C° 0 mm 6 mps 758 mmHg 69%
    12:00 +4°C° 0 mm 7 mps 758 mmHg 64%
    13:00 +4°C° 0 mm 6 mps 758 mmHg 65%
    14:00 +4°C° 0 mm 6 mps 758 mmHg 67%
    15:00 +3°C° 0 mm 5 mps 758 mmHg 68%
    16:00 +3°C° 0 mm 5 mps 758 mmHg 71%
    17:00 +2°C° 0 mm 5 mps 758 mmHg 73%
    18:00 +1°C° 0 mm 5 mps 758 mmHg 76%
    19:00 +1°C° 0 mm 5 mps 759 mmHg 77%
    20:00 +1°C° 0 mm 5 mps 759 mmHg 78%
    21:00 0°C° 0 mm 5 mps 759 mmHg 79%
    22:00 0°C° 0 mm 5 mps 759 mmHg 80%
    23:00 0°C° 0 mm 5 mps 759 mmHg 81%

    Tomorrow, 19 November, Sunday

    Time Temperature Precipitation Wind Pressure Humidity
    00:00 0°C° 0 mm 5 mps 760 mmHg 82%
    01:00 0°C° 0 mm 4 mps 760 mmHg 84%
    02:00 0°C° 0 mm 4 mps 760 mmHg 86%
    03:00 0°C° 0 mm 4 mps 760 mmHg 88%
    04:00 0°C° 0 mm 4 mps 760 mmHg 89%
    05:00 +1°C° 0 mm 3 mps 760 mmHg 90%
    06:00 +1°C° 0 mm 3 mps 760 mmHg 90%
    07:00 +1°C° 0 mm 3 mps 760 mmHg 90%
    08:00 +1°C° 0 mm 3 mps 761 mmHg 90%
    09:00 +2°C° 0 mm 2 mps 761 mmHg 89%
    10:00 +3°C° 0 mm 2 mps 761 mmHg 84%
    11:00 +4°C° 0 mm 2 mps 761 mmHg 79%
    12:00 +6°C° 0 mm 2 mps 760 mmHg 74%
    13:00 +5°C° 0 mm 2 mps 760 mmHg 76%
    14:00 +5°C° 0 mm 2 mps 760 mmHg 78%
    15:00 +5°C° 0 mm 2 mps 759 mmHg 80%
    16:00 +5°C° 0.1 mm 2 mps 759 mmHg 82%
    17:00 +4°C° 0.1 mm 2 mps 759 mmHg 84%
    18:00 +4°C° 0.1 mm 2 mps 759 mmHg 87%
    19:00 +4°C° 0.3 mm 2 mps 758 mmHg 88%
    20:00 +4°C° 0.3 mm 2 mps 757 mmHg 90%
    21:00 +4°C° 0.3 mm 2 mps 757 mmHg 92%
    22:00 +4°C° 0.9 mm 3 mps 756 mmHg 93%
    23:00 +4°C° 0.9 mm 4 mps 755 mmHg 94%

    Day after tomorrow, 20 November, Monday

    Time Temperature Precipitation Wind Pressure Humidity
    00:00 +4°C° 0.9 mm 4 mps 754 mmHg 95%
    01:00 +5°C° 1.9 mm 4 mps 753 mmHg 95%
    02:00 +5°C° 1.9 mm 4 mps 752 mmHg 96%
    03:00 +6°C° 1.9 mm 4 mps 751 mmHg 97%
    04:00 +6°C° 0.5 mm 4 mps 750 mmHg 96%
    05:00 +8°C° 0.5 mm 3 mps 749 mmHg 96%
    06:00 +8°C° 0.5 mm 3 mps 749 mmHg 96%
    07:00 +9°C° 0.2 mm 3 mps 748 mmHg 95%
    08:00 +8°C° 0.2 mm 4 mps 748 mmHg 95%
    09:00 +10°C° 0.2 mm 4 mps 748 mmHg 94%
    10:00 +9°C° 0.3 mm 5 mps 748 mmHg 93%
    11:00 +9°C° 0.3 mm 5 mps 748 mmHg 93%
    12:00 +9°C° 0.3 mm 5 mps 748 mmHg 92%
    13:00 +9°C° 0.1 mm 5 mps 748 mmHg 92%
    14:00 +9°C° 0.1 mm 5 mps 749 mmHg 92%
    15:00 +9°C° 0.1 mm 5 mps 749 mmHg 92%
    16:00 +10°C° 0 mm 4 mps 749 mmHg 93%
    17:00 +9°C° 0 mm 3 mps 750 mmHg 94%
    18:00 +9°C° 0 mm 2 mps 750 mmHg 95%
    19:00 +9°C° 0.1 mm 2 mps 750 mmHg 96%
    20:00 +8°C° 0.1 mm 2 mps 751 mmHg 96%
    21:00 +8°C° 0.1 mm 2 mps 751 mmHg 97%
    22:00 +8°C° 0.2 mm 2 mps 751 mmHg 97%
    23:00 +8°C° 0.2 mm 2 mps 751 mmHg 97%

    21 November, Tuesday

    Time Temperature Precipitation Wind Pressure Humidity
    00:00 +8°C° 0.2 mm 3 mps 751 mmHg 97%
    01:00 +8°C° 0.7 mm 3 mps 751 mmHg 97%
    02:00 +8°C° 0.7 mm 3 mps 750 mmHg 97%
    03:00 +8°C° 0.7 mm 3 mps 750 mmHg 97%
    04:00 +9°C° 0.4 mm 3 mps 749 mmHg 97%
    05:00 +8°C° 0.4 mm 4 mps 748 mmHg 96%
    06:00 +10°C° 0.4 mm 4 mps 748 mmHg 96%
    07:00 +10°C° 0.2 mm 4 mps 747 mmHg 95%
    08:00 +9°C° 0.2 mm 5 mps 747 mmHg 94%
    09:00 +9°C° 0.2 mm 5 mps 746 mmHg 93%
    10:00 +10°C° 0.3 mm 6 mps 745 mmHg 92%
    11:00 +10°C° 0.3 mm 6 mps 745 mmHg 91%
    12:00 +11°C° 0.3 mm 7 mps 744 mmHg 90%
    13:00 +11°C° 0.1 mm 7 mps 743 mmHg 90%
    14:00 +11°C° 0.1 mm 8 mps 743 mmHg 90%
    15:00 +12°C° 0.1 mm 8 mps 742 mmHg 90%
    16:00 +12°C° 0.1 mm 8 mps 742 mmHg 89%
    17:00 +12°C° 0.1 mm 8 mps 742 mmHg 89%
    18:00 +12°C° 0.1 mm 8 mps 741 mmHg 88%
    19:00 +12°C° 0.3 mm 8 mps 741 mmHg 89%
    20:00 +12°C° 0.3 mm 8 mps 741 mmHg 89%
    21:00 +12°C° 0.3 mm 8 mps 741 mmHg 90%
    22:00 +12°C° 0.4 mm 8 mps 741 mmHg 91%
    23:00 +12°C° 0.4 mm 7 mps 741 mmHg 91%

    22 November, Wednesday

    Time Temperature Precipitation Wind Pressure Humidity
    00:00 +12°C° 0.4 mm 7 mps 740 mmHg 91%
    01:00 +11°C° 0.9 mm 7 mps 740 mmHg 92%
    02:00 +11°C° 0.9 mm 7 mps 740 mmHg 92%
    03:00 +11°C° 0.9 mm 6 mps 739 mmHg 93%
    04:00 +11°C° 0.7 mm 6 mps 739 mmHg 92%
    05:00 +11°C° 0.7 mm 6 mps 739 mmHg 91%
    06:00 +11°C° 0.7 mm 7 mps 738 mmHg 91%
    07:00 +11°C° 0.8 mm 7 mps 738 mmHg 90%
    08:00 +11°C° 0.8 mm 7 mps 738 mmHg 90%
    09:00 +11°C° 0.8 mm 7 mps 738 mmHg 90%
    10:00 +11°C° 0.8 mm 7 mps 738 mmHg 89%
    11:00 +12°C° 0.8 mm 7 mps 738 mmHg 89%
    12:00 +12°C° 0.8 mm 8 mps 738 mmHg 88%
    13:00 +12°C° 0.7 mm 8 mps 738 mmHg 88%
    14:00 +12°C° 0.7 mm 8 mps 737 mmHg 88%
    15:00 +12°C° 0.7 mm 8 mps 737 mmHg 88%
    16:00 +12°C° 0.2 mm 8 mps 737 mmHg 87%
    17:00 +12°C° 0.2 mm 8 mps 737 mmHg 86%
    18:00 +12°C° 0.2 mm 8 mps 737 mmHg 85%
    19:00 +12°C° 0.1 mm 8 mps 736 mmHg 84%
    20:00 +12°C° 0.1 mm 8 mps 736 mmHg 83%
    21:00 +11°C° 0.1 mm 8 mps 735 mmHg 82%
    22:00 +11°C° 0.1 mm 8 mps 735 mmHg 79%
    23:00 +11°C° 0.1 mm 8 mps 734 mmHg 76%

    23 November, Thursday

    Time Temperature Precipitation Wind Pressure Humidity
    00:00 +11°C° 0.1 mm 8 mps 733 mmHg 73%
    01:00 +11°C° 0.2 mm 9 mps 733 mmHg 75%
    02:00 +11°C° 0.2 mm 10 mps 732 mmHg 77%
    03:00 +11°C° 0.2 mm 11 mps 731 mmHg 80%
    04:00 +11°C° 0.4 mm 10 mps 731 mmHg 82%
    05:00 +11°C° 0.4 mm 10 mps 731 mmHg 84%
    06:00 +11°C° 0.4 mm 9 mps 731 mmHg 86%
    07:00 +10°C° 0.1 mm 9 mps 732 mmHg 85%
    08:00 +9°C° 0.1 mm 8 mps 733 mmHg 84%
    09:00 +8°C° 0.1 mm 7 mps 734 mmHg 83%
    10:00 +8°C° 0 mm 7 mps 735 mmHg 80%
    11:00 +8°C° 0 mm 7 mps 736 mmHg 77%
    12:00 +8°C° 0 mm 7 mps 736 mmHg 74%
    13:00 +8°C° 0 mm 7 mps 737 mmHg 76%
    14:00 +8°C° 0 mm 6 mps 737 mmHg 78%
    15:00 +7°C° 0 mm 5 mps 738 mmHg 80%
    16:00 +7°C° 0 mm 4 mps 738 mmHg 83%
    17:00 +7°C° 0 mm 4 mps 739 mmHg 87%
    18:00 +7°C° 0 mm 4 mps 739 mmHg 90%
    19:00 +8°C° 0.9 mm 3 mps 739 mmHg 91%
    20:00 +9°C° 0.9 mm 3 mps 739 mmHg 92%
    21:00 +9°C° 0.9 mm 3 mps 739 mmHg 93%
    22:00 +10°C° 0.3 mm 4 mps 739 mmHg 92%
    23:00 +9°C° 0.3 mm 5 mps 739 mmHg 91%
    Show more